WB5RFA Weather Reports


Display with metric or nautical units.
time (UTC)temp
F
wind
direction
speed
MPH
gust
MPH
rain 1hr
in
rain 24hr
in
rain mn
in
humidity
%
barometer
mb
20260906180139 98 162 1.0 5.0 0.00 0.00 0.00 45 1011.0
20260906175339 98 150 1.0 5.0 0.00 0.00 0.00 45 1011.1
20260906174539 98 157 0.0 2.0 0.00 0.00 0.00 46 1011.3
20260906173738 98 184 1.0 5.0 0.00 0.00 0.00 47 1011.4
20260906172938 97 0 0.0 0.0 0.00 0.00 0.00 50 1011.6
20260906172140 96 184 1.0 6.0 0.00 0.00 0.00 49 1011.8
20260906171339 96 176 1.0 5.0 0.00 0.00 0.00 50 1011.7
20260906170539 97 163 1.0 5.0 0.00 0.00 0.00 48 1011.9
20260906165739 97 151 0.0 3.0 0.00 0.00 0.00 49 1011.9
20260906164938 97 145 1.0 4.0 0.00 0.00 0.00 50 1012.0
20260906164138 97 133 0.0 2.0 0.00 0.00 0.00 49 1012.1
20260906163340 96 152 0.0 1.0 0.00 0.00 0.00 51 1012.2
20260906162539 96 172 1.0 4.0 0.00 0.00 0.00 50 1012.1
20260906161739 96 173 0.0 4.0 0.00 0.00 0.00 51 1012.2
20260906160939 96 173 1.0 3.0 0.00 0.00 0.00 53 1012.1
20260906160138 95 167 1.0 5.0 0.00 0.00 0.00 53 1012.1
20260906155338 95 169 0.0 1.0 0.00 0.00 0.00 55 1012.0
20260906154540 93 170 1.0 6.0 0.00 0.00 0.00 56 1012.0
20260906153739 94 158 1.0 6.0 0.00 0.00 0.00 55 1011.9
20260906152939 94 0 0.0 0.0 0.00 0.00 0.00 56 1011.9
20260906152139 93 135 0.0 2.0 0.00 0.00 0.00 56 1011.9
20260906151338 92 144 0.0 1.0 0.00 0.00 0.00 57 1011.9
20260906150538 92 102 0.0 2.0 0.00 0.00 0.00 58 1011.9
20260906145738 91 101 0.0 2.0 0.00 0.00 0.00 59 1011.9
20260906144940 91 100 0.0 1.0 0.00 0.00 0.00 59 1012.0
20260906144139 90 90 0.0 1.0 0.00 0.00 0.00 60 1012.0
20260906143339 90 85 0.0 4.0 0.00 0.00 0.00 61 1012.1
20260906142539 89 0 0.0 0.0 0.00 0.00 0.00 63 1012.0
20260906141738 88 0 0.0 0.0 0.00 0.00 0.00 64 1012.0
20260906140938 87 0 0.0 0.0 0.00 0.00 0.00 65 1011.9
20260906140138 86 76 0.0 1.0 0.00 0.00 0.00 67 1011.9
20260906135340 85 76 0.0 1.0 0.00 0.00 0.00 68 1011.8
20260906134539 84 0 0.0 0.0 0.00 0.00 0.00 69 1011.9
20260906133739 83 0 0.0 0.0 0.00 0.00 0.00 70 1011.9
20260906132939 82 0 0.0 0.0 0.00 0.00 0.00 72 1011.8
20260906132139 81 0 0.0 0.0 0.00 0.00 0.00 73 1011.7
20260906131338 80 0 0.0 0.0 0.00 0.00 0.00 74 1011.6
20260906130538 79 0 0.0 0.0 0.00 0.00 0.00 76 1011.5
20260906125740 79 0 0.0 0.0 0.00 0.00 0.00 76 1011.5
20260906124939 79 0 0.0 0.0 0.00 0.00 0.00 75 1011.4
20260906124139 78 0 0.0 0.0 0.00 0.00 0.00 76 1011.2
20260906123339 78 0 0.0 0.0 0.00 0.00 0.00 76 1011.1
20260906122538 78 0 0.0 0.0 0.00 0.00 0.00 75 1011.0
20260906121740 79 0 0.0 0.0 0.00 0.00 0.00 75 1011.0
20260906120940 79 0 0.0 0.0 0.00 0.00 0.00 74 1010.8
20260906120139 79 0 0.0 0.0 0.00 0.00 0.00 74 1010.8
20260906115339 79 0 0.0 0.0 0.00 0.00 0.00 74 1010.8
20260906114538 79 0 0.0 0.0 0.00 0.00 0.00 74 1010.9
20260906113738 79 0 0.0 0.0 0.00 0.00 0.00 74 1010.8
20260906112940 79 0 0.0 0.0 0.00 0.00 0.00 74 1010.8
20260906112140 79 0 0.0 0.0 0.00 0.00 0.00 74 1010.7
20260906111339 79 0 0.0 0.0 0.00 0.00 0.00 73 1010.7
20260906110539 79 0 0.0 0.0 0.00 0.00 0.00 73 1010.6
20260906105739 79 0 0.0 0.0 0.00 0.00 0.00 74 1010.5
20260906104938 79 0 0.0 0.0 0.00 0.00 0.00 73 1010.6
20260906104138 79 0 0.0 0.0 0.00 0.00 0.00 73 1010.5
20260906103340 79 0 0.0 0.0 0.00 0.00 0.00 72 1010.4
20260906102539 80 0 0.0 0.0 0.00 0.00 0.00 73 1010.4
20260906101739 80 0 0.0 0.0 0.00 0.00 0.00 71 1010.4
20260906100939 80 0 0.0 0.0 0.00 0.00 0.00 71 1010.4
20260906100138 80 0 0.0 0.0 0.00 0.00 0.00 70 1010.3
20260906095338 80 0 0.0 0.0 0.00 0.00 0.00 70 1010.4
20260906094540 80 0 0.0 0.0 0.00 0.00 0.00 70 1010.3
20260906093739 80 0 0.0 0.0 0.00 0.00 0.00 70 1010.3
20260906092941 80 0 0.0 0.0 0.00 0.00 0.00 71 1010.3
20260906092139 81 0 0.0 0.0 0.00 0.00 0.00 71 1010.2
20260906091338 81 0 0.0 0.0 0.00 0.00 0.00 71 1010.3
20260906090538 81 0 0.0 0.0 0.00 0.00 0.00 71 1010.2
20260906085740 80 0 0.0 0.0 0.00 0.00 0.00 71 1010.1
20260906084940 80 0 0.0 0.0 0.00 0.00 0.00 71 1010.1
20260906084139 80 0 0.0 0.0 0.00 0.00 0.00 71 1010.1
20260906083339 81 0 0.0 0.0 0.00 0.00 0.00 71 1010.0
20260906082539 81 0 0.0 0.0 0.00 0.00 0.00 71 1010.0
20260906081739 81 0 0.0 0.0 0.00 0.00 0.00 70 1010.0
20260906080938 82 0 0.0 0.0 0.00 0.00 0.00 69 1010.0
20260906080140 82 0 0.0 0.0 0.00 0.00 0.00 69 1010.0
20260906075340 82 0 0.0 0.0 0.00 0.00 0.00 68 1010.0
20260906074539 82 0 0.0 0.0 0.00 0.00 0.00 68 1010.0
20260906073739 82 0 0.0 0.0 0.00 0.00 0.00 68 1009.9
20260906072939 82 0 0.0 0.0 0.00 0.00 0.00 67 1009.8
20260906072138 83 0 0.0 0.0 0.00 0.00 0.00 67 1009.8
20260906071338 83 0 0.0 0.0 0.00 0.00 0.00 67 1009.9
20260906070540 84 0 0.0 0.0 0.00 0.00 0.00 65 1009.9
20260906065739 84 0 0.0 0.0 0.00 0.00 0.00 66 1009.9
20260906064939 84 0 0.0 0.0 0.00 0.00 0.00 66 1010.0
20260906064139 84 0 0.0 0.0 0.00 0.00 0.00 66 1010.2
20260906063338 84 0 0.0 0.0 0.00 0.00 0.00 65 1010.2
20260906062538 84 0 0.0 0.0 0.00 0.00 0.00 65 1010.3
20260906061740 85 0 0.0 0.0 0.00 0.00 0.00 64 1010.2
20260906060939 85 0 0.0 0.0 0.00 0.00 0.00 64 1010.2
20260906060139 85 0 0.0 0.0 0.00 0.00 0.00 64 1010.2
20260906055339 85 0 0.0 0.0 0.00 0.00 0.00 64 1010.3
20260906054539 85 0 0.0 0.0 0.00 0.00 0.00 64 1010.3
20260906053738 85 0 0.0 0.0 0.00 0.00 0.00 64 1010.4
20260906052938 86 0 0.0 0.0 0.00 0.00 0.00 64 1010.4
20260906052140 86 0 0.0 0.0 0.00 0.00 0.00 64 1010.4
20260906051339 86 0 0.0 0.0 0.00 0.00 0.00 64 1010.4
20260906050539 86 0 0.0 0.0 0.00 0.00 0.00 65 1010.3
20260906045739 86 0 0.0 0.0 0.00 0.00 0.00 65 1010.3
20260906044939 86 0 0.0 0.0 0.00 0.00 0.00 64 1010.3
20260906044138 86 0 0.0 0.0 0.00 0.00 0.00 63 1010.4
20260906043340 87 0 0.0 0.0 0.00 0.00 0.00 63 1010.4
20260906042539 87 0 0.0 0.0 0.00 0.00 0.00 62 1010.4
20260906041739 87 0 0.0 0.0 0.00 0.00 0.00 62 1010.2
20260906040939 87 0 0.0 0.0 0.00 0.00 0.00 62 1010.1
20260906040139 87 0 0.0 0.0 0.00 0.00 0.00 62 1010.1
20260906035338 88 0 0.0 0.0 0.00 0.00 0.00 61 1010.1
20260906034538 88 0 0.0 0.0 0.00 0.00 0.00 61 1010.0
20260906033740 88 0 0.0 0.0 0.00 0.00 0.00 61 1009.9
20260906032939 87 0 0.0 0.0 0.00 0.00 0.00 62 1009.9
20260906032139 87 0 0.0 0.0 0.00 0.00 0.00 62 1009.8
20260906031339 88 0 0.0 0.0 0.00 0.00 0.00 62 1009.8
20260906030538 88 0 0.0 0.0 0.00 0.00 0.00 62 1009.8
20260906025738 88 0 0.0 0.0 0.00 0.00 0.00 62 1009.6
20260906024940 88 0 0.0 0.0 0.00 0.00 0.00 62 1009.5
20260906024140 88 0 0.0 0.0 0.00 0.00 0.00 62 1009.3
20260906023339 88 0 0.0 0.0 0.00 0.00 0.00 61 1009.3
20260906022539 88 0 0.0 0.0 0.00 0.00 0.00 61 1009.1
20260906021739 89 0 0.0 0.0 0.00 0.00 0.00 60 1009.0
20260906020938 89 0 0.0 0.0 0.00 0.00 0.00 59 1008.9
20260906020138 90 0 0.0 0.0 0.00 0.00 0.00 59 1008.9
20260906015340 90 0 0.0 0.0 0.00 0.00 0.00 58 1008.8
20260906014539 90 0 0.0 0.0 0.00 0.00 0.00 57 1008.7
20260906013739 91 0 0.0 0.0 0.00 0.00 0.00 57 1008.7
20260906012939 91 0 0.0 0.0 0.00 0.00 0.00 56 1008.4
20260906012138 92 0 0.0 0.0 0.00 0.00 0.00 55 1008.4
20260906011338 92 0 0.0 0.0 0.00 0.00 0.00 55 1008.3
20260906010539 92 0 0.0 0.0 0.00 0.00 0.00 54 1008.4
20260906005739 92 0 0.0 0.0 0.00 0.00 0.00 54 1008.4
20260906004939 93 0 0.0 0.0 0.00 0.00 0.00 53 1008.4
20260906004138 93 0 0.0 0.0 0.00 0.00 0.00 53 1008.4
20260906003338 94 0 0.0 0.0 0.00 0.00 0.00 51 1008.3
20260906002540 94 0 0.0 0.0 0.00 0.00 0.00 50 1008.4
20260906001739 95 0 0.0 0.0 0.00 0.00 0.00 50 1008.4
20260906000939 95 0 0.0 0.0 0.00 0.00 0.00 48 1008.3
20260906000139 96 0 0.0 0.0 0.00 0.00 0.00 47 1008.3
20260905235338 96 0 0.0 0.0 0.00 0.00 0.00 47 1008.3
20260905234538 97 0 0.0 0.0 0.00 0.00 0.00 46 1008.2
20260905233740 98 0 0.0 0.0 0.00 0.00 0.00 45 1008.1
20260905232940 98 0 0.0 0.0 0.00 0.00 0.00 45 1008.1
20260905232139 98 0 0.0 0.0 0.00 0.00 0.00 41 1008.1
20260905231339 99 0 0.0 0.0 0.00 0.00 0.00 38 1008.0
20260905230539 99 0 0.0 0.0 0.00 0.00 0.00 42 1008.1
20260905225738 100 0 0.0 0.0 0.00 0.00 0.00 39 1008.2
20260905224938 100 0 0.0 0.0 0.00 0.00 0.00 37 1008.1
20260905224140 101 0 0.0 0.0 0.00 0.00 0.00 36 1008.1
20260905223340 102 0 0.0 0.0 0.00 0.00 0.00 35 1008.2
20260905222539 102 0 0.0 0.0 0.00 0.00 0.00 35 1008.2
20260905221739 103 110 0.0 1.0 0.00 0.00 0.00 33 1008.2
20260905220939 102 0 0.0 0.0 0.00 0.00 0.00 35 1008.3
20260905220138 102 0 0.0 0.0 0.00 0.00 0.00 34 1008.3
20260905215338 101 104 0.0 3.0 0.00 0.00 0.00 35 1008.5
20260905214540 101 104 0.0 1.0 0.00 0.00 0.00 36 1008.5
20260905213739 101 95 0.0 1.0 0.00 0.00 0.00 36 1008.5
20260905212939 100 173 0.0 5.0 0.00 0.00 0.00 35 1008.6
20260905212139 100 0 0.0 0.0 0.00 0.00 0.00 36 1008.8
20260905211338 100 0 0.0 0.0 0.00 0.00 0.00 37 1008.8
20260905210538 100 0 0.0 0.0 0.00 0.00 0.00 38 1008.9
20260905205740 99 0 0.0 0.0 0.00 0.00 0.00 39 1009.1
20260905204939 98 0 0.0 0.0 0.00 0.00 0.00 40 1009.1
20260905204139 98 0 0.0 0.0 0.00 0.00 0.00 41 1009.2
20260905203339 98 173 0.0 3.0 0.00 0.00 0.00 41 1009.4
20260905202538 98 175 2.0 5.0 0.00 0.00 0.00 39 1009.6
20260905201738 99 184 3.0 8.0 0.00 0.00 0.00 40 1009.7
20260905200940 99 181 4.0 8.0 0.00 0.00 0.00 40 1009.8
20260905200139 100 179 2.0 7.0 0.00 0.00 0.00 39 1009.8
20260905195339 100 0 0.0 0.0 0.00 0.00 0.00 40 1009.9
20260905194538 99 129 0.0 2.0 0.00 0.00 0.00 41 1009.9
20260905193738 98 0 0.0 0.0 0.00 0.00 0.00 41 1010.0
20260905192938 98 166 0.0 3.0 0.00 0.00 0.00 42 1010.0
20260905192140 98 140 1.0 4.0 0.00 0.00 0.00 41 1010.2
20260905191340 99 152 1.0 5.0 0.00 0.00 0.00 41 1010.2
20260905190539 98 185 2.0 6.0 0.00 0.00 0.00 41 1010.3
20260905185739 98 253 1.0 5.0 0.00 0.00 0.00 42 1010.4
20260905184939 98 255 1.0 5.0 0.00 0.00 0.00 41 1010.5
20260905184138 97 210 1.0 4.0 0.00 0.00 0.00 42 1010.5
20260905183340 99 210 1.0 5.0 0.00 0.00 0.00 42 1010.6
20260905182540 99 232 1.0 5.0 0.00 0.00 0.00 41 1010.8
20260905181739 98 310 0.0 5.0 0.00 0.00 0.00 42 1010.9
20260905180939 99 274 0.0 3.0 0.00 0.00 0.00 42 1011.0